Location: Newark
(44.2003°N, 3.2583°E)
Time: 21:17:40
(UTC+00:00)

Vanguard 1 Rocket - All Passes

Search period start: 18 October 2019 00:00
Search period end: 28 October 2019 00:00
Orbit: 650 x 4226 km, 34.3° (Epoch: 17 October)

Date Brightness Start Highest point End Pass type
(mag) Time Alt. Az. Time Alt. Az. Time Alt. Az.
18 Oct - 08:18:27 10° S 08:28:33 25° SE 08:43:32 10° E daylight
18 Oct - 10:39:29 10° SW 10:54:51 54° SSE 11:19:01 10° E daylight
18 Oct - 13:05:07 10° WSW 13:25:32 65° S 13:51:04 10° ESE daylight
18 Oct - 15:33:58 10° W 15:57:10 52° SSW 16:18:58 10° SE daylight
18 Oct - 18:07:43 10° W 18:25:30 25° SW 18:40:20 10° S visible
19 Oct - 07:12:48 10° SE 07:17:42 13° ESE 07:23:38 10° E daylight
19 Oct - 09:29:13 10° SSW 09:42:00 43° SE 10:03:02 10° E daylight
19 Oct - 11:53:10 10° WSW 12:10:51 64° S 12:36:33 10° E daylight
19 Oct - 14:20:26 10° W 14:42:31 59° SSW 15:06:39 10° SE daylight
19 Oct - 16:51:16 10° W 17:12:38 36° SW 17:31:20 10° SSE visible
20 Oct - 08:19:59 10° S 08:30:12 30° SE 08:46:23 10° E daylight
20 Oct - 10:41:57 10° SW 10:56:54 58° SSE 11:21:14 10° E daylight
20 Oct - 13:07:45 10° W 13:27:39 64° S 13:53:12 10° ESE daylight
20 Oct - 15:36:36 10° W 15:58:53 47° SSW 16:20:37 10° SSE daylight
20 Oct - 18:11:42 10° W 18:26:47 20° SW 18:40:07 10° SSW visible
21 Oct - 07:12:36 10° SSE 07:19:17 17° SE 07:28:20 10° E daylight
21 Oct - 09:31:29 10° SW 09:43:57 47° SSE 10:05:19 10° E daylight
21 Oct - 11:55:47 10° WSW 12:13:02 64° S 12:38:43 10° ESE daylight
21 Oct - 14:23:05 10° W 14:44:28 55° SSW 15:08:31 10° SE daylight
21 Oct - 16:54:20 10° W 17:14:05 31° SW 17:32:11 10° S visible
22 Oct - 08:21:53 10° SSW 08:32:01 34° SE 08:48:57 10° E daylight
22 Oct - 10:44:31 10° WSW 10:59:05 60° SSE 11:23:24 10° E daylight
22 Oct - 13:10:26 10° W 13:29:46 61° SSW 13:55:13 10° ESE daylight
22 Oct - 15:39:23 10° W 16:00:33 41° SW 16:21:56 10° SSE daylight
22 Oct - 18:17:04 10° W 18:28:06 15° SW 18:38:24 10° SSW visible
23 Oct - 07:13:36 10° S 07:21:00 21° SE 07:31:53 10° E daylight
23 Oct - 09:33:55 10° SW 09:46:02 51° SSE 10:07:32 10° E daylight
23 Oct - 11:58:30 10° WSW 12:15:16 64° S 12:40:48 10° ESE daylight
23 Oct - 14:25:48 10° W 14:46:21 50° SSW 15:10:09 10° SE daylight
23 Oct - 16:57:49 10° W 17:15:31 25° SW 17:32:24 10° S visible
24 Oct - 08:24:03 10° SSW 08:33:58 39° SE 08:51:22 10° E daylight
24 Oct - 10:47:11 10° WSW 11:01:21 62° S 11:25:31 10° E daylight
24 Oct - 13:13:10 10° W 13:31:53 58° SSW 13:57:03 10° SE daylight
24 Oct - 15:42:21 10° W 16:02:11 35° SW 16:22:53 10° SSE daylight
25 Oct - 07:15:12 10° S 07:22:50 25° SE 07:34:53 10° E daylight
25 Oct - 09:36:30 10° SW 09:48:16 55° SSE 10:09:41 10° E daylight
25 Oct - 12:01:15 10° W 12:17:31 62° S 12:42:46 10° ESE daylight
25 Oct - 14:28:37 10° W 14:48:14 45° SSW 15:11:30 10° SSE daylight
25 Oct - 17:02:02 10° W 17:16:58 20° SW 17:31:44 10° SSW visible
26 Oct - 06:08:51 10° SE 06:12:25 12° SE 06:16:43 10° ESE daylight
26 Oct - 08:26:26 10° SW 08:36:06 43° SSE 08:53:40 10° E daylight
26 Oct - 10:49:57 10° WSW 11:03:41 62° S 11:27:34 10° ESE daylight
26 Oct - 13:15:58 10° W 13:33:58 53° SSW 13:58:40 10° SE daylight
26 Oct - 15:45:39 10° W 16:03:49 30° SW 16:23:19 10° S daylight
27 Oct - 07:17:11 10° SSW 07:24:51 29° SE 07:37:37 10° E daylight
27 Oct - 09:39:11 10° WSW 09:50:37 57° SSE 10:11:49 10° E daylight
27 Oct - 12:04:04 10° W 12:19:49 59° S 12:44:35 10° ESE daylight
27 Oct - 14:31:36 10° W 14:50:06 39° SSW 15:12:29 10° SSE daylight
27 Oct - 17:07:43 10° WSW 17:18:29 14° SW 17:29:21 10° SSW visible
